TimeMST,TemperatureF,Dew PointF,Humidity,Sea Level PressureIn,VisibilityMPH,Wind Direction,Wind SpeedMPH,Gust SpeedMPH,PrecipitationIn,Events,Conditions,WindDirDegrees,DateUTC
12:53 AM,17.1,12.0,81,30.25,10.0,Calm,Calm,-,N/A,,Clear,0,2013-01-19 07:53:00
1:53 AM,8.1,5.0,87,30.28,10.0,Calm,Calm,-,N/A,,Clear,0,2013-01-19 08:53:00
2:53 AM,19.0,12.0,74,30.27,10.0,West,3.5,-,N/A,,Clear,280,2013-01-19 09:53:00
3:53 AM,12.0,7.0,80,30.31,10.0,SSE,8.1,-,N/A,,Clear,150,2013-01-19 10:53:00
4:53 AM,6.1,1.9,83,30.35,10.0,SSW,4.6,-,N/A,,Clear,200,2013-01-19 11:53:00
5:53 AM,12.9,7.0,77,30.35,10.0,South,8.1,-,N/A,,Clear,180,2013-01-19 12:53:00
6:53 AM,10.0,3.9,76,30.38,10.0,Calm,Calm,-,N/A,,Clear,0,2013-01-19 13:53:00
7:53 AM,8.1,3.0,80,30.40,10.0,Calm,Calm,-,N/A,,Clear,0,2013-01-19 14:53:00
8:53 AM,14.0,7.0,74,30.40,10.0,South,6.9,-,N/A,,Clear,170,2013-01-19 15:53:00
9:53 AM,10.9,6.1,81,30.45,10.0,Calm,Calm,-,N/A,,Clear,0,2013-01-19 16:53:00
10:53 AM,19.9,10.9,68,30.41,10.0,WSW,4.6,-,N/A,,Clear,250,2013-01-19 17:53:00
11:53 AM,24.1,12.9,62,30.38,10.0,Calm,Calm,-,N/A,,Clear,0,2013-01-19 18:53:00
12:53 PM,27.0,14.0,58,30.35,10.0,Calm,Calm,-,N/A,,Clear,0,2013-01-19 19:53:00
1:53 PM,28.9,16.0,58,30.36,10.0,Calm,Calm,-,N/A,,Clear,0,2013-01-19 20:53:00
2:53 PM,30.0,16.0,56,30.32,10.0,Calm,Calm,-,N/A,,Clear,0,2013-01-19 21:53:00
3:53 PM,28.0,17.1,63,30.35,10.0,WSW,3.5,-,N/A,,Clear,240,2013-01-19 22:53:00
4:53 PM,25.0,16.0,69,30.37,10.0,Calm,Calm,-,N/A,,Clear,0,2013-01-19 23:53:00
5:53 PM,21.9,12.9,68,30.35,10.0,Calm,Calm,-,N/A,,Clear,0,2013-01-20 00:53:00
6:53 PM,19.9,14.0,78,30.36,10.0,Calm,Calm,-,N/A,,Clear,0,2013-01-20 01:53:00
7:53 PM,19.0,14.0,81,30.36,10.0,East,3.5,-,N/A,,Clear,80,2013-01-20 02:53:00
8:53 PM,17.1,12.9,84,30.35,10.0,ESE,3.5,-,N/A,,Clear,120,2013-01-20 03:53:00
9:53 PM,15.1,10.9,84,30.36,10.0,South,5.8,-,N/A,,Clear,180,2013-01-20 04:53:00
10:53 PM,15.1,10.9,84,30.34,10.0,SSW,8.1,-,N/A,,Clear,200,2013-01-20 05:53:00
11:53 PM,12.9,10.0,88,30.33,10.0,Calm,Calm,-,N/A,,Clear,0,2013-01-20 06:53:00